Retour au catalogue

COSMOS 2362

GLONASS

ActifNavigationMEO
NORAD 25595·PAYLOAD·🇷🇺 Russia

Lancé Dec 30, 1998 depuis Baikonur Cosmodrome

Loading…

Prochains Passages (prochaines 24 heures)

TLE

FraisSource: Space-Track

Époque: Sep 13, 2026, 19:37 UTC

1 25595U 98077C   26256.81773492 -.00000030  00000-0  00000-0 0  9993
2 25595  64.3988  57.1052 0007194  61.3610 295.9444  2.13103814215563

Suivez COSMOS 2362 en temps réel avec AllMySat

Download on the App Store